Powrót do katalogu

SOLRAD 11A

AktywnyNaukaMEO
NORAD 8748·PAYLOAD·🇺🇸 United States

Wystrzelony Mar 15, 1976 z Cape Canaveral Space Force Station

Loading…

Następne Przeloty (najbliższe 24 godziny)

TLE

ŚwieżeSource: Space-Track

Epoka: Sep 18, 2026, 07:30 UTC

1 08748U 76023C   26261.31275813 -.00000582  00000-0  00000-0 0  9998
2 08748  14.7052 358.9412 0065199 212.3796 345.1516  0.19680042  5640

Śledź SOLRAD 11A w czasie rzeczywistym z AllMySat

Download on the App Store